Regional Weather Roundup
Issued by NWS

Home | Current Version | Previous Version | Text Only | Print | Product List | Glossary On
Versions: 1 2 3 4 5 6 7 8 9 10 11 12 13 14 15 16 17 18 19 20 21 22 23 24 25 26 27 28 29 30 31 32 33 34 35 36 37 38 39 40 41 42 43 44 45 46 47 48 49 50
000
ASUS43 KLSX 270007
RWRMO

WEATHER SUMMARY FOR MISSOURI
NATIONAL WEATHER SERVICE SPRINGFIELD MO
600 PM CST MON JAN 26 2015

NOTE: "FAIR" INDICATES FEW OR NO CLOUDS BELOW 12,000 FEET WITH NO
       SIGNIFICANT WEATHER AND/OR OBSTRUCTIONS TO VISIBILITY.
       CURRENT SKY AND/OR WEATHER CONDITIONS ARE NOT AVAILABLE FOR
       CHILLICOTHE AND FARMINGTON.

MOZ001>031-035>038-043-044-053-054-270100-
...NORTHERN AND WESTERN MISSOURI...

CITY           SKY/WX    TMP DP  RH WIND       PRES   REMARKS
KANSAS CTY INT PTCLDY    52  33  48 NW7       29.96R
6HR MIN TEMP:  48; 6HR MAX TEMP:  61;

KANSAS C DTWN  CLEAR     57  32  38 NW6       29.95R
6HR MIN TEMP:  49; 6HR MAX TEMP:  62;

LEE`S SUMMIT   CLEAR     53  32  44 N7        29.95R
6HR MIN TEMP:  48; 6HR MAX TEMP:  61;

ST JOSEPH      CLEAR     48  32  53 N6        29.97R
6HR MIN TEMP:  46; 6HR MAX TEMP:  61;

CHILLICOTHE      N/A     51  35  54 NW6       29.93R
6HR MIN TEMP:  47; 6HR MAX TEMP:  58;

KIRKSVILLE     CLEAR     46  35  65 NW8       29.88R
6HR MIN TEMP:  41; 6HR MAX TEMP:  52;


$$
MOZ066>068-077>081-088>096-101>105-270100-
...SOUTHWEST MISSOURI...

CITY           SKY/WX    TMP DP  RH WIND       PRES   REMARKS
SPRINGFIELD    CLEAR     51  35  54 NW7       29.96R
6HR MIN TEMP:  46; 6HR MAX TEMP:  57;

JOPLIN         CLEAR     52  35  52 SW7       29.98R
6HR MIN TEMP:  49; 6HR MAX TEMP:  59;


$$
MOZ032>034-039>042-045>050-055>058-069>072-270100-
...CENTRAL MISSOURI...

CITY           SKY/WX    TMP DP  RH WIND       PRES   REMARKS
COLUMBIA       CLEAR     47  35  63 W7        29.90R
6HR MIN TEMP:  42; 6HR MAX TEMP:  52;

JEFFERSON CITY CLEAR     49  36  61 W7        29.91R
6HR MIN TEMP:  43; 6HR MAX TEMP:  54;

ROLLA          CLEAR     49  34  56 NW13      29.89R
6HR MIN TEMP:  40; 6HR MAX TEMP:  52;

SEDALIA        CLEAR     50  35  56 W5        29.94R
6HR MIN TEMP:  46; 6HR MAX TEMP:  55;

WHITEMAN AFB   CLEAR     51  35  53 NW8       29.93R
WARRENSBURG    CLEAR     52  32  46 W6        29.94R
OSAGE BEACH    CLEAR     52  34  50 W6        29.93R

$$
MOZ051-052-059>065-270100-
...EAST CENTRAL MISSOURI...

CITY           SKY/WX    TMP DP  RH WIND       PRES   REMARKS
ST LOUIS INTL  PTCLDY    36  28  73 SE7       29.91R
6HR MIN TEMP:  35; 6HR MAX TEMP:  42; 6HR PCP: TRACE;

SPIRIT OF STL  CLEAR     34  30  85 CALM      29.89R
6HR MIN TEMP:  34; 6HR MAX TEMP:  46;

ST CHARLES     CLEAR     32  29  88 E7        29.91R WCI  26
6HR MIN TEMP:  32; 6HR MAX TEMP:  38; 6HR PCP: TRACE;


$$
MOZ072>076-082>087-097>100-106>115-270100-
...SOUTH CENTRAL AND SOUTHEAST MISSOURI...

CITY           SKY/WX    TMP DP  RH WIND       PRES   REMARKS
CAPE GIRARDEAU CLEAR     36  31  82 E3        29.96R
6HR MIN TEMP:  36; 6HR MAX TEMP:  40;

FARMINGTON     CLEAR     39  27  60 MISG      29.93S
6HR MIN TEMP:  34; 6HR MAX TEMP:  45;

POPLAR BLUFF   CLEAR     40  33  76 S6        29.91S
6HR MIN TEMP:  38; 6HR MAX TEMP:  45;

WEST PLAINS    CLEAR     47  30  51 W6        29.92R
6HR MIN TEMP:  42; 6HR MAX TEMP:  54;


$$


USA.gov is the U.S. government's official web portal to all federal, state and local government web resources and services.